IGO1168 VCBI-VOBL

Flight info

Callsign IGO1168
Flight time 1h 22m
Altitude 38000
Route ATETA1D ATETA T4 TTR W42 ADKAL ADKAL7E
Aircraft A20N/M-SDE2E3FGHIRWXY/LB1

Departure

Time 2026-04-25 12:48
Airport Bandaranaike International Colombo Airport (VCBI)

Arrival

Time 2026-04-25 14:10
Airport Kempegowda International Airport Bengaluru (VOBL)
Time Latitude Longitude Altitude Speed Heading
2026-04-25 12:13 7.17580 79.88470 47 ft 0 kts 37°
2026-04-25 12:37 7.17568 79.88462 47 ft 2 kts 36°
2026-04-25 12:37 7.17558 79.88454 47 ft 2 kts 37°
2026-04-25 12:38 7.17547 79.88446 47 ft 1 kts 36°
2026-04-25 12:38 7.17538 79.88439 47 ft 2 kts 25°
2026-04-25 12:38 7.17524 79.88435 47 ft 2 kts
2026-04-25 12:38 7.17506 79.88438 47 ft 2 kts 339°
2026-04-25 12:39 7.17490 79.88448 47 ft 2 kts 313°
2026-04-25 12:39 7.17486 79.88452 47 ft 1 kts 303°
2026-04-25 12:39 7.17484 79.88456 47 ft 0 kts 306°
2026-04-25 12:40 7.17486 79.88453 47 ft 1 kts 306°
2026-04-25 12:41 7.17495 79.88441 47 ft 3 kts 306°
2026-04-25 12:41 7.17513 79.88416 46 ft 5 kts 306°
2026-04-25 12:41 7.17538 79.88381 46 ft 8 kts 306°
2026-04-25 12:41 7.17571 79.88334 45 ft 10 kts 305°
2026-04-25 12:42 7.17620 79.88273 44 ft 11 kts 322°
2026-04-25 12:42 7.17675 79.88269 44 ft 11 kts 25°
2026-04-25 12:42 7.17757 79.88330 45 ft 11 kts 37°
2026-04-25 12:42 7.17826 79.88383 46 ft 11 kts 37°
2026-04-25 12:43 7.17909 79.88445 45 ft 13 kts 37°
2026-04-25 12:43 7.17995 79.88509 45 ft 14 kts 36°
2026-04-25 12:43 7.18146 79.88632 47 ft 13 kts 38°
2026-04-25 12:44 7.18219 79.88689 47 ft 13 kts 38°
2026-04-25 12:44 7.18299 79.88747 47 ft 14 kts 35°
2026-04-25 12:44 7.18462 79.88878 47 ft 15 kts 37°
2026-04-25 12:45 7.18553 79.88947 47 ft 15 kts 39°
2026-04-25 12:45 7.18649 79.89024 45 ft 17 kts 38°
2026-04-25 12:45 7.18862 79.89186 42 ft 19 kts 37°
2026-04-25 12:46 7.18974 79.89275 42 ft 18 kts 35°
2026-04-25 12:46 7.19086 79.89361 40 ft 19 kts 37°
2026-04-25 12:46 7.19207 79.89420 39 ft 18 kts 321°
2026-04-25 12:46 7.19293 79.89322 42 ft 10 kts 291°
2026-04-25 12:47 7.19272 79.89278 43 ft 4 kts 222°
2026-04-25 12:47 7.19247 79.89257 43 ft 4 kts 219°
2026-04-25 12:47 7.19184 79.89208 44 ft 36 kts 217°
2026-04-25 12:47 7.18773 79.88888 46 ft 107 kts 219°
2026-04-25 12:48 7.18020 79.88320 57 ft 160 kts 219°
2026-04-25 12:48 7.17076 79.87585 530 ft 167 kts 218°
2026-04-25 12:48 7.16039 79.86765 1290 ft 166 kts 219°
2026-04-25 12:48 7.15337 79.85864 1916 ft 169 kts 254°
2026-04-25 12:49 7.15575 79.84640 2252 ft 184 kts 307°
2026-04-25 12:49 7.16693 79.83916 2531 ft 200 kts 340°
2026-04-25 12:49 7.18189 79.83655 2815 ft 217 kts 360°
2026-04-25 12:49 7.19926 79.83666 3148 ft 237 kts
2026-04-25 12:50 7.21792 79.83666 3587 ft 253 kts
2026-04-25 12:50 7.23752 79.83836 4242 ft 261 kts 11°
2026-04-25 12:50 7.25575 79.84261 5040 ft 261 kts 20°
2026-04-25 12:50 7.27412 79.85027 5939 ft 259 kts 30°
2026-04-25 12:51 7.29067 79.86101 6829 ft 259 kts 38°
2026-04-25 12:51 7.30659 79.87351 7648 ft 262 kts 39°
2026-04-25 12:51 7.32234 79.88603 8391 ft 268 kts 39°
2026-04-25 12:51 7.33890 79.89900 9145 ft 272 kts 38°
2026-04-25 12:52 7.35668 79.91016 9844 ft 278 kts 21°
2026-04-25 12:52 7.37841 79.91447 10517 ft 286 kts
2026-04-25 12:52 7.40122 79.91508 10974 ft 302 kts
2026-04-25 12:52 7.42483 79.91536 11306 ft 320 kts
2026-04-25 12:53 7.45040 79.91580 11797 ft 330 kts
2026-04-25 12:53 7.47618 79.91627 12447 ft 335 kts
2026-04-25 12:53 7.50253 79.91711 13044 ft 342 kts
2026-04-25 12:53 7.52901 79.91785 13683 ft 346 kts
2026-04-25 12:54 7.55634 79.91862 14355 ft 349 kts
2026-04-25 12:54 7.58362 79.91569 14987 ft 355 kts 346°
2026-04-25 12:54 7.60892 79.90630 15625 ft 359 kts 335°
2026-04-25 12:54 7.63269 79.89339 16211 ft 363 kts 331°
2026-04-25 12:55 7.65523 79.88020 16756 ft 367 kts 331°
2026-04-25 12:55 7.67206 79.87054 17160 ft 369 kts 332°
2026-04-25 12:55 7.70604 79.85251 17925 ft 372 kts 341°
2026-04-25 12:55 7.73516 79.84770 18448 ft 373 kts
2026-04-25 12:56 7.76417 79.85315 19007 ft 373 kts 22°
2026-04-25 12:56 7.79129 79.86508 19578 ft 375 kts 24°
2026-04-25 12:56 7.81967 79.87312 20114 ft 380 kts
2026-04-25 12:56 7.85007 79.87441 20682 ft 384 kts 360°
2026-04-25 12:57 7.88108 79.87175 21205 ft 389 kts 353°
2026-04-25 12:57 7.91117 79.86649 21706 ft 392 kts 351°
2026-04-25 12:57 7.94203 79.86052 22197 ft 396 kts 351°
2026-04-25 12:57 7.97293 79.85446 22688 ft 399 kts 351°
2026-04-25 12:58 8.00375 79.84847 23154 ft 403 kts 351°
2026-04-25 12:58 8.03468 79.84248 23613 ft 407 kts 350°
2026-04-25 12:58 8.06649 79.83632 24068 ft 410 kts 350°
2026-04-25 12:58 8.09781 79.83225 24463 ft 413 kts
2026-04-25 12:59 8.12820 79.83419 24880 ft 415 kts
2026-04-25 12:59 8.16183 79.83226 25297 ft 420 kts 354°
2026-04-25 12:59 8.19491 79.82769 25714 ft 424 kts 352°
2026-04-25 12:59 8.22833 79.82199 26112 ft 427 kts 350°
2026-04-25 13:00 8.26203 79.81567 26492 ft 431 kts 349°
2026-04-25 13:00 8.28467 79.81140 26757 ft 433 kts 350°
2026-04-25 13:00 8.33055 79.80302 27292 ft 437 kts 350°
2026-04-25 13:00 8.36461 79.79698 27668 ft 440 kts 350°
2026-04-25 13:01 8.39881 79.79101 28032 ft 443 kts 350°
2026-04-25 13:01 8.43368 79.78497 28391 ft 446 kts 350°
2026-04-25 13:01 8.46641 79.77931 28718 ft 449 kts 350°
2026-04-25 13:01 8.49979 79.77356 29057 ft 451 kts 350°
2026-04-25 13:02 8.53363 79.76773 29401 ft 454 kts 350°
2026-04-25 13:02 8.56805 79.76180 29737 ft 456 kts 350°
2026-04-25 13:02 8.60265 79.75584 30086 ft 458 kts 350°
2026-04-25 13:02 8.63789 79.74978 30519 ft 457 kts 350°
2026-04-25 13:03 8.67411 79.74355 31012 ft 455 kts 350°
2026-04-25 13:03 8.71018 79.73734 31472 ft 454 kts 350°
2026-04-25 13:03 8.74540 79.73126 31879 ft 453 kts 350°
2026-04-25 13:03 8.78205 79.72495 32318 ft 452 kts 350°
2026-04-25 13:04 8.81790 79.71878 32752 ft 452 kts 350°
2026-04-25 13:04 8.85317 79.71270 33212 ft 451 kts 349°
2026-04-25 13:04 8.88855 79.70660 33668 ft 449 kts 349°
2026-04-25 13:04 8.92442 79.70042 34135 ft 448 kts 349°
2026-04-25 13:05 8.95985 79.69430 34507 ft 449 kts 349°
2026-04-25 13:05 8.99479 79.68981 34824 ft 450 kts 355°
2026-04-25 13:05 9.03056 79.68904 35116 ft 452 kts
2026-04-25 13:05 9.06297 79.69130 35363 ft 453 kts
2026-04-25 13:06 9.09481 79.69079 35551 ft 454 kts 354°
2026-04-25 13:06 9.12698 79.68662 35779 ft 454 kts 349°
2026-04-25 13:06 9.19843 79.67208 35828 ft 456 kts 346°
2026-04-25 13:07 9.26970 79.65771 35834 ft 456 kts 347°
2026-04-25 13:07 9.33825 79.63377 35829 ft 453 kts 332°
2026-04-25 13:08 9.40093 79.59785 35830 ft 452 kts 325°
2026-04-25 13:08 9.46217 79.55801 35831 ft 452 kts 325°
2026-04-25 13:09 9.52393 79.51840 35829 ft 453 kts 325°
2026-04-25 13:09 9.58525 79.47940 35824 ft 453 kts 325°
2026-04-25 13:10 9.64750 79.43987 35822 ft 452 kts 326°
2026-04-25 13:10 9.70896 79.40086 35826 ft 452 kts 325°
2026-04-25 13:11 9.77150 79.36115 35828 ft 453 kts 325°
2026-04-25 13:11 9.83200 79.32270 35828 ft 453 kts 325°
2026-04-25 13:12 9.89212 79.28449 35834 ft 452 kts 325°
2026-04-25 13:12 9.94367 79.25172 35836 ft 453 kts 325°
2026-04-25 13:13 10.01452 79.20664 35838 ft 453 kts 325°
2026-04-25 13:13 10.07555 79.16780 35822 ft 453 kts 325°
2026-04-25 13:14 10.13172 79.13203 35817 ft 453 kts 325°
2026-04-25 13:14 10.19187 79.09372 35821 ft 453 kts 325°
2026-04-25 13:15 10.25151 79.05571 35822 ft 453 kts 325°
2026-04-25 13:15 10.31166 79.01736 35834 ft 453 kts 325°
2026-04-25 13:16 10.37302 78.97822 35840 ft 453 kts 324°
2026-04-25 13:16 10.43314 78.93985 35840 ft 453 kts 324°
2026-04-25 13:17 10.49377 78.90114 35836 ft 454 kts 324°
2026-04-25 13:17 10.55436 78.86243 35839 ft 454 kts 325°
2026-04-25 13:18 10.61049 78.82658 35835 ft 453 kts 324°
2026-04-25 13:18 10.66961 78.78878 35831 ft 453 kts 324°
2026-04-25 13:19 10.72893 78.75082 35825 ft 453 kts 325°
2026-04-25 13:19 10.78012 78.72180 35824 ft 455 kts 331°
2026-04-25 13:20 10.82466 78.70188 35435 ft 456 kts 335°
2026-04-25 13:20 10.85685 78.68869 35117 ft 453 kts 335°
2026-04-25 13:20 10.89056 78.67499 34782 ft 450 kts 335°
2026-04-25 13:20 10.92474 78.66105 34443 ft 449 kts 335°
2026-04-25 13:21 10.95847 78.64723 34109 ft 450 kts 335°
2026-04-25 13:21 10.99175 78.63357 33779 ft 451 kts 335°
2026-04-25 13:21 11.02607 78.61947 33443 ft 452 kts 336°
2026-04-25 13:21 11.06005 78.60548 33111 ft 453 kts 336°
2026-04-25 13:22 11.09369 78.59164 32787 ft 454 kts 336°
2026-04-25 13:22 11.12535 78.57861 32498 ft 456 kts 336°
2026-04-25 13:22 11.15953 78.56454 32209 ft 456 kts 336°
2026-04-25 13:23 11.22677 78.53686 31648 ft 457 kts 336°
2026-04-25 13:23 11.26127 78.52263 31359 ft 457 kts 336°
2026-04-25 13:23 11.29512 78.50867 31075 ft 457 kts 336°
2026-04-25 13:23 11.32867 78.49483 30791 ft 458 kts 336°
2026-04-25 13:24 11.36245 78.48090 30508 ft 458 kts 336°
2026-04-25 13:24 11.39672 78.46677 30223 ft 458 kts 336°
2026-04-25 13:24 11.43085 78.45268 29940 ft 458 kts 336°
2026-04-25 13:24 11.46431 78.43887 29657 ft 455 kts 336°
2026-04-25 13:25 11.49837 78.42481 29373 ft 453 kts 336°
2026-04-25 13:25 11.53224 78.41083 29082 ft 450 kts 336°
2026-04-25 13:25 11.56571 78.39700 28799 ft 448 kts 336°
2026-04-25 13:25 11.59877 78.38334 28516 ft 446 kts 336°
2026-04-25 13:26 11.63248 78.36941 28226 ft 444 kts 336°
2026-04-25 13:26 11.66540 78.35580 27943 ft 442 kts 336°
2026-04-25 13:26 11.69637 78.34301 27676 ft 441 kts 336°
2026-04-25 13:26 11.72545 78.33099 27425 ft 439 kts 336°
2026-04-25 13:27 11.75720 78.31786 27149 ft 437 kts 336°
2026-04-25 13:27 11.78950 78.30450 26867 ft 435 kts 336°
2026-04-25 13:27 11.82147 78.29110 26587 ft 433 kts 335°
2026-04-25 13:27 11.85342 78.27577 26298 ft 430 kts 331°
2026-04-25 13:28 11.88372 78.25863 26015 ft 428 kts 328°
2026-04-25 13:28 11.90289 78.24692 25830 ft 427 kts 328°
2026-04-25 13:28 11.94194 78.22277 25452 ft 425 kts 328°
2026-04-25 13:28 11.97145 78.20452 25166 ft 424 kts 328°
2026-04-25 13:29 11.99972 78.18706 24891 ft 422 kts 328°
2026-04-25 13:29 12.02791 78.16966 24615 ft 420 kts 328°
2026-04-25 13:29 12.05631 78.15215 24338 ft 419 kts 328°
2026-04-25 13:30 12.10950 78.11938 23813 ft 416 kts 328°
2026-04-25 13:30 12.13485 78.10375 23559 ft 415 kts 328°
2026-04-25 13:30 12.16026 78.08809 23300 ft 413 kts 328°
2026-04-25 13:31 12.21017 78.05730 22788 ft 410 kts 328°
2026-04-25 13:31 12.23507 78.04193 22533 ft 408 kts 328°
2026-04-25 13:31 12.26063 78.02615 22269 ft 407 kts 328°
2026-04-25 13:31 12.28592 78.01054 22015 ft 406 kts 328°
2026-04-25 13:32 12.31079 77.99519 21762 ft 404 kts 328°
2026-04-25 13:32 12.33568 77.97983 21500 ft 403 kts 328°
2026-04-25 13:32 12.36030 77.96462 21237 ft 401 kts 329°
2026-04-25 13:32 12.38486 77.94950 20876 ft 399 kts 329°
2026-04-25 13:33 12.40924 77.93450 20465 ft 396 kts 329°
2026-04-25 13:33 12.43392 77.91929 20042 ft 393 kts 329°
2026-04-25 13:33 12.45820 77.90430 19630 ft 389 kts 329°
2026-04-25 13:33 12.47463 77.89416 19350 ft 387 kts 329°
2026-04-25 13:34 12.50680 77.87426 18769 ft 384 kts 329°
2026-04-25 13:34 12.53158 77.85893 18309 ft 381 kts 329°
2026-04-25 13:34 12.55512 77.84436 17861 ft 379 kts 329°
2026-04-25 13:34 12.57828 77.83003 17430 ft 376 kts 329°
2026-04-25 13:35 12.60108 77.81592 17013 ft 373 kts 329°
2026-04-25 13:35 12.62420 77.80160 16610 ft 370 kts 329°
2026-04-25 13:35 12.64641 77.78783 16227 ft 366 kts 330°
2026-04-25 13:35 12.66862 77.77407 15827 ft 364 kts 330°
2026-04-25 13:36 12.69060 77.76044 15425 ft 361 kts 330°
2026-04-25 13:36 12.71256 77.74683 15024 ft 358 kts 330°
2026-04-25 13:36 12.73392 77.73360 14626 ft 355 kts 330°
2026-04-25 13:36 12.75526 77.72037 14223 ft 352 kts 330°
2026-04-25 13:37 12.77606 77.70746 13816 ft 350 kts 330°
2026-04-25 13:37 12.79706 77.69445 13396 ft 347 kts 331°
2026-04-25 13:37 12.81782 77.68157 12969 ft 345 kts 331°
2026-04-25 13:37 12.83832 77.66885 12544 ft 343 kts 331°
2026-04-25 13:38 12.85874 77.65620 12116 ft 341 kts 331°
2026-04-25 13:38 12.87899 77.64364 11688 ft 339 kts 331°
2026-04-25 13:38 12.89915 77.63112 11268 ft 337 kts 331°
2026-04-25 13:38 12.91934 77.61858 10910 ft 332 kts 331°
2026-04-25 13:39 12.93889 77.60644 10828 ft 326 kts 331°
2026-04-25 13:39 12.95818 77.59442 10801 ft 313 kts 331°
2026-04-25 13:39 12.97664 77.58294 10553 ft 306 kts 331°
2026-04-25 13:39 12.99496 77.57155 10278 ft 301 kts 331°
2026-04-25 13:40 13.01289 77.56042 9986 ft 296 kts 332°
2026-04-25 13:40 13.03055 77.54945 9697 ft 292 kts 331°
2026-04-25 13:40 13.04816 77.53852 9412 ft 287 kts 331°
2026-04-25 13:40 13.06544 77.52776 9132 ft 283 kts 331°
2026-04-25 13:41 13.08344 77.51655 8844 ft 279 kts 332°
2026-04-25 13:41 13.10087 77.50571 8568 ft 274 kts 332°
2026-04-25 13:41 13.11834 77.49484 8295 ft 270 kts 332°
2026-04-25 13:41 13.13518 77.48436 8033 ft 266 kts 332°
2026-04-25 13:42 13.15272 77.47345 7757 ft 261 kts 332°
2026-04-25 13:42 13.16958 77.46305 7514 ft 256 kts 335°
2026-04-25 13:42 13.18773 77.45844 7217 ft 242 kts 13°
2026-04-25 13:42 13.20276 77.46617 6942 ft 227 kts 54°
2026-04-25 13:43 13.20879 77.48102 6709 ft 218 kts 83°
2026-04-25 13:43 13.20949 77.49619 6515 ft 213 kts 90°
2026-04-25 13:43 13.20912 77.51125 6301 ft 208 kts 91°
2026-04-25 13:43 13.20871 77.52617 6097 ft 203 kts 91°
2026-04-25 13:44 13.20844 77.54057 5940 ft 202 kts 91°
2026-04-25 13:44 13.20827 77.55524 5906 ft 205 kts 90°
2026-04-25 13:44 13.20815 77.57008 5569 ft 210 kts 90°
2026-04-25 13:44 13.20804 77.58515 5201 ft 214 kts 91°
2026-04-25 13:45 13.20791 77.60068 4832 ft 217 kts 91°
2026-04-25 13:45 13.20767 77.61584 4840 ft 205 kts 94°
2026-04-25 13:45 13.20376 77.62974 5171 ft 208 kts 124°
2026-04-25 13:45 13.19196 77.63943 5550 ft 227 kts 157°
2026-04-25 13:46 13.17566 77.64119 5900 ft 251 kts 187°
2026-04-25 13:46 13.15859 77.63491 6014 ft 268 kts 207°
2026-04-25 13:46 13.14486 77.62177 6010 ft 274 kts 237°
2026-04-25 13:46 13.13841 77.60334 6021 ft 277 kts 262°
2026-04-25 13:47 13.13756 77.58328 6022 ft 278 kts 274°
2026-04-25 13:47 13.13968 77.56301 6022 ft 278 kts 278°
2026-04-25 13:47 13.14248 77.54246 6022 ft 277 kts 279°
2026-04-25 13:47 13.14555 77.52087 6023 ft 277 kts 279°
2026-04-25 13:48 13.14859 77.49994 6020 ft 271 kts 279°
2026-04-25 13:48 13.15346 77.47974 6009 ft 264 kts 300°
2026-04-25 13:48 13.16686 77.46456 6019 ft 257 kts 333°
2026-04-25 13:48 13.18487 77.45767 6029 ft 251 kts 354°
2026-04-25 13:49 13.20353 77.45757 6031 ft 246 kts 10°
2026-04-25 13:49 13.22062 77.46276 6018 ft 235 kts 38°
2026-04-25 13:49 13.23097 77.47499 6016 ft 211 kts 71°
2026-04-25 13:49 13.23222 77.48925 6011 ft 194 kts 102°
2026-04-25 13:50 13.22850 77.50193 6084 ft 177 kts 108°
2026-04-25 13:50 13.22432 77.51365 5960 ft 169 kts 109°
2026-04-25 13:50 13.22032 77.52458 5841 ft 156 kts 109°
2026-04-25 13:50 13.21659 77.53476 5661 ft 153 kts 109°
2026-04-25 13:51 13.21292 77.54519 5470 ft 153 kts 106°
2026-04-25 13:51 13.21026 77.55667 5277 ft 153 kts 99°
2026-04-25 13:51 13.20897 77.56785 5091 ft 154 kts 95°
2026-04-25 13:51 13.20832 77.57903 4904 ft 154 kts 92°
2026-04-25 13:52 13.20804 77.59018 4719 ft 154 kts 91°
2026-04-25 13:52 13.20791 77.60178 4517 ft 154 kts 91°
2026-04-25 13:52 13.20782 77.61359 4313 ft 155 kts 91°
2026-04-25 13:52 13.20773 77.62454 4112 ft 152 kts 91°
2026-04-25 13:53 13.20764 77.63535 3922 ft 150 kts 92°
2026-04-25 13:53 13.20754 77.64607 3739 ft 150 kts 92°
2026-04-25 13:53 13.20745 77.65675 3556 ft 149 kts 92°
2026-04-25 13:53 13.20736 77.66736 3373 ft 149 kts 92°
2026-04-25 13:54 13.20726 77.67790 3188 ft 147 kts 92°
2026-04-25 13:54 13.20703 77.68835 3015 ft 141 kts 94°
2026-04-25 13:54 13.20691 77.69737 3003 ft 91 kts 95°
2026-04-25 13:54 13.20700 77.70473 3003 ft 130 kts 90°
2026-04-25 13:55 13.20661 77.71573 3147 ft 171 kts 97°
2026-04-25 13:55 13.20620 77.72865 3645 ft 187 kts 89°
2026-04-25 13:55 13.20695 77.74229 4068 ft 199 kts 88°
2026-04-25 13:55 13.20775 77.75742 4510 ft 212 kts 88°
2026-04-25 13:56 13.20822 77.77328 4969 ft 225 kts 95°
2026-04-25 13:56 13.20252 77.78972 5442 ft 240 kts 126°
2026-04-25 13:56 13.18740 77.80132 5886 ft 252 kts 157°
2026-04-25 13:56 13.16877 77.80337 6020 ft 262 kts 186°
2026-04-25 13:57 13.15129 77.79588 6027 ft 269 kts 212°
2026-04-25 13:57 13.14148 77.78800 6029 ft 271 kts 219°
2026-04-25 13:57 13.12804 77.76643 6021 ft 276 kts 255°
2026-04-25 13:57 13.12465 77.74700 6027 ft 276 kts 265°
2026-04-25 13:58 13.12437 77.72708 6025 ft 275 kts 272°
2026-04-25 13:58 13.12534 77.70608 6026 ft 276 kts 274°
2026-04-25 13:58 13.12655 77.68493 6026 ft 276 kts 274°
2026-04-25 13:58 13.12782 77.66364 6028 ft 276 kts 274°
2026-04-25 13:59 13.12860 77.64401 6031 ft 276 kts 270°
2026-04-25 13:59 13.12851 77.62428 6031 ft 277 kts 269°
2026-04-25 13:59 13.12823 77.60416 6030 ft 277 kts 269°
2026-04-25 13:59 13.12792 77.58421 6029 ft 277 kts 269°
2026-04-25 14:00 13.12759 77.56430 6028 ft 277 kts 269°
2026-04-25 14:00 13.12725 77.54364 6028 ft 278 kts 269°
2026-04-25 14:00 13.12691 77.52280 6029 ft 277 kts 269°
2026-04-25 14:00 13.12659 77.50260 6030 ft 277 kts 269°
2026-04-25 14:01 13.12627 77.48206 6029 ft 277 kts 269°
2026-04-25 14:01 13.12595 77.46124 6026 ft 277 kts 269°
2026-04-25 14:01 13.12564 77.44016 6025 ft 276 kts 269°
2026-04-25 14:01 13.12535 77.41954 6031 ft 276 kts 269°
2026-04-25 14:02 13.12744 77.39933 6015 ft 267 kts 291°
2026-04-25 14:02 13.13901 77.38238 6017 ft 247 kts 328°
2026-04-25 14:02 13.15643 77.37445 6040 ft 240 kts 349°
2026-04-25 14:02 13.16837 77.37223 6016 ft 225 kts
2026-04-25 14:03 13.18899 77.37865 6042 ft 212 kts 30°
2026-04-25 14:03 13.20225 77.38666 6037 ft 208 kts 45°
2026-04-25 14:03 13.21034 77.39923 6033 ft 202 kts 80°
2026-04-25 14:03 13.21115 77.41384 6061 ft 201 kts 92°
2026-04-25 14:04 13.21050 77.42819 6122 ft 193 kts 93°
2026-04-25 14:04 13.20985 77.44151 6076 ft 177 kts 92°
2026-04-25 14:04 13.20941 77.45362 6038 ft 159 kts 92°
2026-04-25 14:04 13.20913 77.46495 6043 ft 156 kts 91°
2026-04-25 14:05 13.20893 77.47607 6042 ft 156 kts 91°
2026-04-25 14:05 13.20878 77.48717 6045 ft 156 kts 90°
2026-04-25 14:05 13.20867 77.49863 6045 ft 156 kts 90°
2026-04-25 14:05 13.20859 77.50974 6044 ft 154 kts 90°
2026-04-25 14:06 13.20851 77.52045 5905 ft 145 kts 90°
2026-04-25 14:06 13.20845 77.53082 5735 ft 143 kts 91°
2026-04-25 14:06 13.20839 77.54113 5547 ft 142 kts 91°
2026-04-25 14:06 13.20832 77.55119 5372 ft 141 kts 90°
2026-04-25 14:07 13.20825 77.56121 5201 ft 141 kts 91°
2026-04-25 14:07 13.20817 77.57130 5024 ft 140 kts 91°
2026-04-25 14:07 13.20810 77.58135 4852 ft 140 kts 92°
2026-04-25 14:07 13.20800 77.59163 4691 ft 147 kts 91°
2026-04-25 14:08 13.20791 77.60268 4504 ft 150 kts 91°
2026-04-25 14:08 13.20782 77.61359 4308 ft 150 kts 91°
2026-04-25 14:08 13.20774 77.62425 4118 ft 150 kts 92°
2026-04-25 14:08 13.20764 77.63493 3927 ft 149 kts 92°
2026-04-25 14:09 13.20755 77.64568 3743 ft 149 kts 92°
2026-04-25 14:09 13.20746 77.65623 3564 ft 149 kts 92°
2026-04-25 14:09 13.20737 77.66688 3381 ft 148 kts 92°
2026-04-25 14:09 13.20731 77.67390 3259 ft 147 kts 92°
2026-04-25 14:10 13.20719 77.68767 3019 ft 142 kts 92°
2026-04-25 14:10 13.20707 77.69690 3003 ft 110 kts 90°
2026-04-25 14:10 13.20703 77.70211 3003 ft 22 kts 90°
2026-04-25 14:10 13.20703 77.70233 3003 ft 0 kts 90°
2026-04-25 14:11 13.20703 77.70238 3003 ft 1 kts 90°
2026-04-25 14:11 13.20703 77.70249 3003 ft 2 kts 90°
2026-04-25 14:11 13.20703 77.70269 3003 ft 3 kts 90°
2026-04-25 14:11 13.20703 77.70296 3003 ft 4 kts 90°
2026-04-25 14:12 13.20702 77.70332 3003 ft 7 kts 91°
2026-04-25 14:12 13.20690 77.70433 3003 ft 26 kts 111°
2026-04-25 14:12 13.20584 77.70628 3003 ft 32 kts 121°
2026-04-25 14:12 13.20521 77.70837 3003 ft 26 kts 96°
2026-04-25 14:13 13.20516 77.71021 3002 ft 24 kts 91°
2026-04-25 14:13 13.20513 77.71192 3002 ft 23 kts 92°
2026-04-25 14:13 13.20426 77.71277 3002 ft 20 kts 187°
2026-04-25 14:13 13.20287 77.71276 3002 ft 18 kts 164°
2026-04-25 14:14 13.20284 77.71350 3002 ft 10 kts 97°
2026-04-25 14:14 13.20258 77.71404 3002 ft 9 kts 192°
2026-04-25 14:14 13.20196 77.71392 3002 ft 8 kts 173°
2026-04-25 14:14 13.20147 77.71393 3002 ft 0 kts 180°